Regional Weather Roundup
Issued by NWS Albany, NY

Home | Current Version | Previous Version | Graphics & Text | Print | Product List | Glossary On
Versions: 1 2 3 4 5 6 7 8 9 10 11 12 13 14 15 16 17 18 19 20 21 22 23 24 25 26 27 28 29 30 31 32 33 34 35 36 37 38 39 40 41 42 43 44 45 46 47 48 49 50
000
ASUS41 KALY 171810
RWRALY

NEW YORK STATE HOURLY WEATHER ROUNDUP
NATIONAL WEATHER SERVICE ALBANY NY
200 PM EDT FRI APR 17 2015

NOTE: "FAIR" INDICATES FEW OR NO CLOUDS BELOW 12,000 FEET WITH NO
SIGNIFICANT WEATHER AND/OR NO OBSTRUCTIONS TO VISIBILITY.

NYZ032-033-038>043-046>054-057>066-NYZ062>081-171900-
EAST


CITY           SKY/WX    TMP DP  RH WIND       PRES   REMARKS
ALBANY         CLOUDY    59  50  72 W12       29.95F
GLENS FALLS    CLOUDY    62  45  53 W13G20    29.91F
POUGHKEEPSIE   PTSUNNY   65  53  65 SW9       29.93F
NEWBURGH       PTSUNNY   64  57  77 W9G16     29.96F
MONTGOMERY     PTSUNNY   68  29  23 W9        29.93F
WHITE PLAINS   CLOUDY    63  53  70 W12G18    29.95F
ISLIP          CLOUDY    58  55  90 SW9       29.97F
NEW YORK CITY  CLOUDY    64  53  67 W9        29.97F
CENTRAL PARK   CLOUDY    63  53  70 W6        30.00F
$$

NYZ005>009-017-018-044>046-055-056-171900-
CENTRAL


CITY           SKY/WX    TMP DP  RH WIND       PRES   REMARKS
FULTON         CLOUDY    53  48  83 W9        30.00S
SYRACUSE       CLOUDY    55  51  86 W10       29.99S
ROME           CLOUDY    54  49  83 W9        30.00S
ELMIRA         CLOUDY    65  53  65 W8        29.98R
BINGHAMTON     CLOUDY    57  51  80 NW8       29.98S
MONTICELLO     CLOUDY    57  52  82 W8        29.98F
$$

NYZ026>034-041>043-171900-
NORTH


CITY           SKY/WX    TMP DP  RH WIND       PRES   REMARKS
WATERTOWN      PTSUNNY   55  48  77 SW12G21   29.97S
FORT DRUM      NOT AVBL
MASSENA        SUNNY     62  45  53 SW14G24   29.89S
SARANAC LAKE   PTSUNNY   57  43  59 SW12G20   29.89S
PLATTSBURGH    MOSUNNY   64  43  46 S13G18    29.84F
$$

NYZ001>004-010>016-019>021-171900-
WEST


CITY           SKY/WX    TMP DP  RH WIND       PRES   REMARKS
NIAGARA FALLS  MOSUNNY   61  52  72 S12       30.00F
BUFFALO        PTSUNNY   53  48  83 SW17      30.03S HAZE
DUNKIRK        CLOUDY    55  51  86 W9        30.05F
JAMESTOWN      PTSUNNY   61  46  59 W10G20    30.05F
WELLSVILLE     CLOUDY    58  50  75 VRB7      30.03F
ROCHESTER      CLOUDY    58  50  75 W9        30.01S
PENN YAN       CLOUDY    58  51  78 W6        30.00S
$$

             KEY
       WCI = WIND CHILL INDEX
       VSB = VISIBILITY
       HX  = HEAT INDEX
$$



USA.gov is the U.S. government's official web portal to all federal, state and local government web resources and services.